• In Russia
  • List of Countries
  • For 7 days
  • Water Temperature
  • Satellite Maps
  • Weather Map
  • Weather Widgets
  • user-avatar
    Login

    Hourly Weather Hobart

    Today, 22 February, Friday

    Time Temperature Precipitation Wind Pressure Humidity
    00:00 +12°C° 0 mm 1 mps 751 mmHg 89%
    01:00 +12°C° 0 mm 1 mps 751 mmHg 92%
    02:00 +10°C° 0 mm 2 mps 751 mmHg 92%
    03:00 +10°C° 0 mm 2 mps 751 mmHg 93%
    04:00 +10°C° 0 mm 2 mps 751 mmHg 94%
    05:00 +10°C° 0 mm 2 mps 752 mmHg 90%
    06:00 +12°C° 0 mm 2 mps 752 mmHg 86%
    07:00 +13°C° 0 mm 2 mps 752 mmHg 83%
    08:00 +15°C° 0 mm 2 mps 753 mmHg 73%
    09:00 +17°C° 0 mm 2 mps 753 mmHg 64%
    10:00 +20°C° 0 mm 1 mps 753 mmHg 52%
    11:00 +21°C° 0 mm 1 mps 753 mmHg 50%
    12:00 +22°C° 0 mm 1 mps 753 mmHg 48%
    13:00 +21°C° 0 mm 2 mps 753 mmHg 46%
    14:00 +21°C° 0 mm 2 mps 753 mmHg 47%
    15:00 +21°C° 0 mm 2 mps 753 mmHg 48%
    16:00 +21°C° 0 mm 2 mps 753 mmHg 48%
    17:00 +20°C° 0 mm 2 mps 753 mmHg 55%
    18:00 +18°C° 0 mm 2 mps 753 mmHg 61%
    19:00 +18°C° 0 mm 1 mps 754 mmHg 68%
    20:00 +15°C° 0 mm 1 mps 754 mmHg 74%
    21:00 +14°C° 0 mm 1 mps 754 mmHg 80%
    22:00 +13°C° 0 mm 2 mps 755 mmHg 86%
    23:00 +12°C° 0 mm 2 mps 755 mmHg 88%

    Tomorrow, 23 February, Saturday

    Time Temperature Precipitation Wind Pressure Humidity
    00:00 +12°C° 0 mm 2 mps 755 mmHg 90%
    01:00 +10°C° 0 mm 2 mps 755 mmHg 92%
    02:00 +10°C° 0 mm 2 mps 755 mmHg 91%
    03:00 +11°C° 0 mm 3 mps 755 mmHg 90%
    04:00 +11°C° 0 mm 3 mps 756 mmHg 89%
    05:00 +11°C° 0 mm 3 mps 756 mmHg 86%
    06:00 +11°C° 0 mm 3 mps 756 mmHg 83%
    07:00 +11°C° 0 mm 3 mps 757 mmHg 80%
    08:00 +13°C° 0 mm 3 mps 757 mmHg 69%
    09:00 +14°C° 0 mm 3 mps 757 mmHg 59%
    10:00 +16°C° 0 mm 3 mps 758 mmHg 49%
    11:00 +17°C° 0 mm 3 mps 758 mmHg 46%
    12:00 +18°C° 0 mm 3 mps 758 mmHg 42%
    13:00 +19°C° 0 mm 3 mps 758 mmHg 39%
    14:00 +19°C° 0 mm 3 mps 758 mmHg 41%
    15:00 +19°C° 0 mm 3 mps 758 mmHg 43%
    16:00 +18°C° 0 mm 3 mps 758 mmHg 45%
    17:00 +16°C° 0 mm 3 mps 758 mmHg 52%
    18:00 +14°C° 0 mm 2 mps 758 mmHg 59%
    19:00 +13°C° 0 mm 2 mps 758 mmHg 66%
    20:00 +11°C° 0 mm 1 mps 759 mmHg 73%
    21:00 +10°C° 0 mm 1 mps 759 mmHg 79%
    22:00 +8°C° 0 mm 0 mps 760 mmHg 86%
    23:00 +9°C° 0 mm 1 mps 760 mmHg 88%

    Day after tomorrow, 24 February, Sunday

    Time Temperature Precipitation Wind Pressure Humidity
    00:00 +9°C° 0 mm 1 mps 759 mmHg 89%
    01:00 +8°C° 0 mm 1 mps 759 mmHg 91%
    02:00 +8°C° 0 mm 1 mps 759 mmHg 91%
    03:00 +7°C° 0 mm 2 mps 759 mmHg 91%
    04:00 +7°C° 0 mm 2 mps 759 mmHg 91%
    05:00 +8°C° 0 mm 2 mps 759 mmHg 86%
    06:00 +9°C° 0 mm 2 mps 759 mmHg 81%
    07:00 +10°C° 0 mm 2 mps 759 mmHg 75%
    08:00 +14°C° 0 mm 2 mps 759 mmHg 62%
    09:00 +18°C° 0 mm 2 mps 759 mmHg 49%
    10:00 +21°C° 0 mm 2 mps 759 mmHg 35%
    11:00 +24°C° 0 mm 2 mps 759 mmHg 32%
    12:00 +25°C° 0 mm 3 mps 759 mmHg 28%
    13:00 +27°C° 0 mm 3 mps 759 mmHg 25%
    14:00 +27°C° 0 mm 3 mps 758 mmHg 27%
    15:00 +27°C° 0 mm 4 mps 758 mmHg 29%
    16:00 +27°C° 0 mm 4 mps 757 mmHg 31%
    17:00 +25°C° 0 mm 4 mps 757 mmHg 38%
    18:00 +22°C° 0 mm 3 mps 757 mmHg 45%
    19:00 +19°C° 0 mm 3 mps 757 mmHg 52%
    20:00 +18°C° 0 mm 3 mps 757 mmHg 55%
    21:00 +17°C° 0 mm 3 mps 757 mmHg 58%
    22:00 +16°C° 0 mm 3 mps 757 mmHg 61%
    23:00 +16°C° 0 mm 3 mps 757 mmHg 61%

    25 February, Monday

    Time Temperature Precipitation Wind Pressure Humidity
    00:00 +14°C° 0 mm 3 mps 756 mmHg 60%
    01:00 +14°C° 0 mm 3 mps 756 mmHg 59%
    02:00 +13°C° 0 mm 3 mps 756 mmHg 57%
    03:00 +13°C° 0 mm 3 mps 755 mmHg 55%
    04:00 +13°C° 0 mm 3 mps 755 mmHg 52%
    05:00 +13°C° 0 mm 3 mps 755 mmHg 51%
    06:00 +14°C° 0 mm 3 mps 755 mmHg 49%
    07:00 +16°C° 0 mm 2 mps 755 mmHg 47%
    08:00 +20°C° 0 mm 2 mps 755 mmHg 40%
    09:00 +24°C° 0 mm 2 mps 755 mmHg 33%
    10:00 +28°C° 0 mm 2 mps 755 mmHg 26%
    11:00 +30°C° 0 mm 2 mps 755 mmHg 23%
    12:00 +32°C° 0 mm 2 mps 754 mmHg 21%
    13:00 +35°C° 0 mm 2 mps 754 mmHg 18%
    14:00 +34°C° 0 mm 2 mps 753 mmHg 20%
    15:00 +34°C° 0 mm 3 mps 753 mmHg 22%
    16:00 +34°C° 0 mm 3 mps 752 mmHg 24%
    17:00 +29°C° 0 mm 3 mps 752 mmHg 34%
    18:00 +25°C° 0 mm 3 mps 752 mmHg 44%
    19:00 +21°C° 0 mm 3 mps 752 mmHg 54%
    20:00 +19°C° 0 mm 2 mps 752 mmHg 62%
    21:00 +18°C° 0 mm 1 mps 752 mmHg 70%
    22:00 +14°C° 0 mm 0 mps 752 mmHg 78%
    23:00 +14°C° 0 mm 0 mps 752 mmHg 80%

    26 February, Tuesday

    Time Temperature Precipitation Wind Pressure Humidity
    00:00 +14°C° 0 mm 0 mps 752 mmHg 82%
    01:00 +13°C° 0 mm 0 mps 751 mmHg 83%
    02:00 +13°C° 0 mm 0 mps 751 mmHg 87%
    03:00 +13°C° 0 mm 0 mps 751 mmHg 90%
    04:00 +12°C° 0 mm 0 mps 751 mmHg 94%
    05:00 +13°C° 0 mm 0 mps 751 mmHg 91%
    06:00 +14°C° 0 mm 0 mps 752 mmHg 89%
    07:00 +15°C° 0 mm 0 mps 752 mmHg 86%
    08:00 +16°C° 0 mm 1 mps 752 mmHg 84%
    09:00 +17°C° 0 mm 2 mps 753 mmHg 81%
    10:00 +18°C° 0 mm 3 mps 753 mmHg 78%
    11:00 +17°C° 0 mm 4 mps 753 mmHg 77%
    12:00 +15°C° 0 mm 4 mps 753 mmHg 76%
    13:00 +15°C° 0 mm 4 mps 752 mmHg 74%
    14:00 +15°C° 0 mm 4 mps 752 mmHg 72%
    15:00 +14°C° 0 mm 4 mps 753 mmHg 70%
    16:00 +14°C° 0 mm 4 mps 753 mmHg 68%
    17:00 +14°C° 0 mm 4 mps 753 mmHg 68%
    18:00 +13°C° 0 mm 4 mps 754 mmHg 68%
    19:00 +12°C° 0 mm 4 mps 755 mmHg 68%
    20:00 +11°C° 0 mm 3 mps 755 mmHg 74%
    21:00 +10°C° 0 mm 2 mps 756 mmHg 79%
    22:00 +9°C° 0 mm 2 mps 756 mmHg 84%
    23:00 +8°C° 0 mm 2 mps 756 mmHg 86%

    27 February, Wednesday

    Time Temperature Precipitation Wind Pressure Humidity
    00:00 +9°C° 0 mm 1 mps 756 mmHg 88%
    01:00 +8°C° 0 mm 1 mps 756 mmHg 90%
    02:00 +8°C° 0 mm 1 mps 756 mmHg 91%
    03:00 +8°C° 0 mm 1 mps 756 mmHg 92%
    04:00 +7°C° 0 mm 1 mps 756 mmHg 93%
    05:00 +8°C° 0 mm 1 mps 757 mmHg 90%
    06:00 +9°C° 0 mm 1 mps 757 mmHg 87%
    07:00 +9°C° 0 mm 1 mps 757 mmHg 83%
    08:00 +12°C° 0 mm 1 mps 757 mmHg 70%
    09:00 +15°C° 0 mm 1 mps 758 mmHg 57%
    10:00 +19°C° 0 mm 1 mps 758 mmHg 44%
    11:00 +20°C° 0 mm 1 mps 757 mmHg 40%
    12:00 +21°C° 0 mm 2 mps 757 mmHg 35%
    13:00 +22°C° 0 mm 3 mps 757 mmHg 31%
    14:00 +22°C° 0 mm 3 mps 756 mmHg 34%
    15:00 +22°C° 0 mm 4 mps 756 mmHg 38%
    16:00 +21°C° 0 mm 4 mps 755 mmHg 41%
    17:00 +19°C° 0 mm 4 mps 755 mmHg 51%
    18:00 +17°C° 0 mm 4 mps 755 mmHg 61%
    19:00 +14°C° 0 mm 4 mps 755 mmHg 71%
    20:00 +13°C° 0 mm 3 mps 756 mmHg 77%
    21:00 +12°C° 0 mm 3 mps 756 mmHg 82%
    22:00 +11°C° 0 mm 3 mps 756 mmHg 87%
    23:00 +11°C° 0 mm 3 mps 755 mmHg 86%
    Show more